Retour au catalogue

THOR ABLESTAR DEB

ActifPO
NORAD 2620·DEBRIS·🇺🇸 United States

Lancé Dec 5, 1963 depuis Vandenberg Space Force Base

Loading…

Prochains Passages (prochaines 24 heures)

TLE

FraisSource: Space-Track

Époque: Sep 14, 2026, 11:06 UTC

1 02620U 63049H   26257.46259568  .00000185  00000-0  23601-3 0  9998
2 02620  89.9131  71.7080 0014436 186.8128 201.7569 13.59790244102522

Suivez THOR ABLESTAR DEB en temps réel avec AllMySat

Download on the App Store